contact:dominique.lefevre@mio.osupytheas.fr, maurice.libes@osupytheas.fr, didier.mallarino@osupytheas.fr
Project:EMSO http://www.emso-fr.org/EMSO-France
Depth: 2436.0 m
Title:EMSO Ligure Ouest : Data MII capteur MICROCAT
DateTime_Computer,Latitude,Longitude,Temperature,Conductivity,Pressure,DateTime_Instrument
DateTime_Computer,Latitude,Longitude,degC,S m-1,dbar,DateTime_Instrument
2019-12-09T00:00:07Z,42.805,6.029,13.2961,4.59958,2469.867,2019-12-09T02:00:36Z
2019-12-09T00:03:10Z,42.805,6.029,13.2961,4.59956,2469.83,2019-12-09T02:03:40Z
2019-12-09T00:06:13Z,42.805,6.029,13.2960,4.59958,2469.89,2019-12-09T02:06:43Z
2019-12-09T00:09:16Z,42.805,6.029,13.2960,4.59960,2469.853,2019-12-09T02:09:46Z
2019-12-09T00:12:20Z,42.805,6.029,13.2954,4.59958,2469.89,2019-12-09T02:12:49Z
2019-12-09T00:15:23Z,42.805,6.029,13.2954,4.59958,2469.867,2019-12-09T02:15:52Z
2019-12-09T00:18:26Z,42.805,6.029,13.2957,4.59958,2469.853,2019-12-09T02:18:55Z
2019-12-09T00:21:29Z,42.805,6.029,13.2958,4.59958,2469.83,2019-12-09T02:21:59Z
2019-12-09T00:24:32Z,42.805,6.029,13.2961,4.59957,2469.89,2019-12-09T02:25:02Z
2019-12-09T00:27:36Z,42.805,6.029,13.2962,4.59957,2469.83,2019-12-09T02:28:05Z
2019-12-09T00:30:39Z,42.805,6.029,13.2961,4.59956,2469.853,2019-12-09T02:31:08Z
2019-12-09T00:33:42Z,42.805,6.029,13.2964,4.59956,2469.876,2019-12-09T02:34:11Z
2019-12-09T00:36:45Z,42.805,6.029,13.2959,4.59957,2469.853,2019-12-09T02:37:15Z
2019-12-09T00:39:48Z,42.805,6.029,13.2959,4.59956,2469.853,2019-12-09T02:40:18Z
2019-12-09T00:42:51Z,42.805,6.029,13.2959,4.59956,2469.83,2019-12-09T02:43:21Z
2019-12-09T00:45:55Z,42.805,6.029,13.2958,4.59956,2469.89,2019-12-09T02:46:24Z
2019-12-09T00:48:58Z,42.805,6.029,13.2952,4.59956,2469.876,2019-12-09T02:49:27Z
2019-12-09T00:52:01Z,42.805,6.029,13.2956,4.59957,2469.853,2019-12-09T02:52:31Z
2019-12-09T00:55:04Z,42.805,6.029,13.2958,4.59956,2469.867,2019-12-09T02:55:34Z
2019-12-09T00:58:08Z,42.805,6.029,13.2957,4.59957,2469.876,2019-12-09T02:58:37Z
2019-12-09T01:01:11Z,42.805,6.029,13.2958,4.59958,2469.853,2019-12-09T03:01:41Z
2019-12-09T01:04:14Z,42.805,6.029,13.2957,4.59957,2469.876,2019-12-09T03:04:44Z
2019-12-09T01:07:17Z,42.805,6.029,13.2959,4.59956,2469.89,2019-12-09T03:07:47Z
2019-12-09T01:10:20Z,42.805,6.029,13.2958,4.59956,2469.876,2019-12-09T03:10:50Z
2019-12-09T01:13:24Z,42.805,6.029,13.2956,4.59957,2469.853,2019-12-09T03:13:53Z
2019-12-09T01:16:27Z,42.805,6.029,13.2958,4.59958,2469.89,2019-12-09T03:16:56Z
2019-12-09T01:19:30Z,42.805,6.029,13.2958,4.59956,2469.853,2019-12-09T03:20:00Z
2019-12-09T01:22:33Z,42.805,6.029,13.2957,4.59957,2469.89,2019-12-09T03:23:03Z
2019-12-09T01:25:36Z,42.805,6.029,13.2957,4.59958,2469.89,2019-12-09T03:26:06Z
2019-12-09T01:28:40Z,42.805,6.029,13.2962,4.59959,2469.876,2019-12-09T03:29:09Z
2019-12-09T01:31:43Z,42.805,6.029,13.2958,4.59958,2469.853,2019-12-09T03:32:12Z
2019-12-09T01:34:46Z,42.805,6.029,13.2960,4.59958,2469.876,2019-12-09T03:35:16Z
2019-12-09T01:37:49Z,42.805,6.029,13.2958,4.59958,2469.876,2019-12-09T03:38:19Z
2019-12-09T01:40:52Z,42.805,6.029,13.2959,4.59958,2469.9,2019-12-09T03:41:22Z
2019-12-09T01:43:56Z,42.805,6.029,13.2958,4.59957,2469.89,2019-12-09T03:44:25Z
2019-12-09T01:46:59Z,42.805,6.029,13.2957,4.59957,2469.89,2019-12-09T03:47:28Z
2019-12-09T01:50:02Z,42.805,6.029,13.2961,4.59956,2469.9,2019-12-09T03:50:32Z
2019-12-09T01:53:05Z,42.805,6.029,13.2953,4.59956,2469.9,2019-12-09T03:53:35Z
2019-12-09T01:56:08Z,42.805,6.029,13.2957,4.59958,2469.937,2019-12-09T03:56:38Z
2019-12-09T01:59:12Z,42.805,6.029,13.2961,4.59958,2469.914,2019-12-09T03:59:41Z
2019-12-09T02:02:15Z,42.805,6.029,13.2958,4.59957,2469.9,2019-12-09T04:02:44Z
2019-12-09T02:05:18Z,42.805,6.029,13.2964,4.59958,2469.9,2019-12-09T04:05:47Z
2019-12-09T02:08:21Z,42.805,6.029,13.2958,4.59957,2469.9,2019-12-09T04:08:51Z
2019-12-09T02:11:24Z,42.805,6.029,13.2959,4.59957,2469.9,2019-12-09T04:11:54Z
2019-12-09T02:14:27Z,42.805,6.029,13.2957,4.59957,2469.914,2019-12-09T04:14:57Z
2019-12-09T02:17:31Z,42.805,6.029,13.2959,4.59959,2469.923,2019-12-09T04:18:00Z
2019-12-09T02:20:34Z,42.805,6.029,13.2957,4.59956,2469.937,2019-12-09T04:21:03Z
2019-12-09T02:23:37Z,42.805,6.029,13.2958,4.59956,2469.89,2019-12-09T04:24:07Z
2019-12-09T02:26:40Z,42.805,6.029,13.2958,4.59956,2469.937,2019-12-09T04:27:10Z
2019-12-09T02:29:43Z,42.805,6.029,13.2958,4.59958,2469.9,2019-12-09T04:30:13Z
2019-12-09T02:32:47Z,42.805,6.029,13.2959,4.59959,2469.937,2019-12-09T04:33:16Z
2019-12-09T02:35:50Z,42.805,6.029,13.2955,4.59957,2469.923,2019-12-09T04:36:19Z
2019-12-09T02:38:53Z,42.805,6.029,13.2957,4.59957,2469.947,2019-12-09T04:39:23Z
2019-12-09T02:41:56Z,42.805,6.029,13.2961,4.59957,2469.914,2019-12-09T04:42:26Z
2019-12-09T02:44:59Z,42.805,6.029,13.2961,4.59958,2469.923,2019-12-09T04:45:29Z
2019-12-09T02:48:03Z,42.805,6.029,13.2956,4.59957,2469.9,2019-12-09T04:48:32Z
2019-12-09T02:51:06Z,42.805,6.029,13.2956,4.59956,2469.9,2019-12-09T04:51:35Z
2019-12-09T02:54:09Z,42.805,6.029,13.2958,4.59956,2469.923,2019-12-09T04:54:39Z
2019-12-09T02:57:12Z,42.805,6.029,13.2957,4.59955,2469.984,2019-12-09T04:57:42Z
2019-12-09T03:00:15Z,42.805,6.029,13.2953,4.59956,2469.947,2019-12-09T05:00:45Z
2019-12-09T03:03:19Z,42.805,6.029,13.2957,4.59956,2469.947,2019-12-09T05:03:48Z
2019-12-09T03:06:22Z,42.805,6.029,13.2959,4.59956,2469.9,2019-12-09T05:06:51Z
2019-12-09T03:09:25Z,42.805,6.029,13.2955,4.59956,2469.947,2019-12-09T05:09:55Z
2019-12-09T03:12:28Z,42.805,6.029,13.2958,4.59958,2469.96,2019-12-09T05:12:58Z
2019-12-09T03:15:31Z,42.805,6.029,13.2958,4.59957,2469.984,2019-12-09T05:16:01Z
2019-12-09T03:18:35Z,42.805,6.029,13.2961,4.59957,2469.97,2019-12-09T05:19:04Z
2019-12-09T03:21:38Z,42.805,6.029,13.2962,4.59957,2469.974,2019-12-09T05:22:07Z
2019-12-09T03:24:41Z,42.805,6.029,13.2957,4.59958,2469.923,2019-12-09T05:25:11Z
2019-12-09T03:27:44Z,42.805,6.029,13.2958,4.59956,2469.923,2019-12-09T05:28:14Z
2019-12-09T03:30:47Z,42.805,6.029,13.2961,4.59957,2469.96,2019-12-09T05:31:17Z
2019-12-09T03:33:50Z,42.805,6.029,13.2956,4.59957,2469.993,2019-12-09T05:34:20Z
2019-12-09T03:36:54Z,42.805,6.029,13.2957,4.59957,2469.984,2019-12-09T05:37:23Z
2019-12-09T03:39:57Z,42.805,6.029,13.2961,4.59957,2469.97,2019-12-09T05:40:26Z
2019-12-09T03:43:00Z,42.805,6.029,13.2958,4.59958,2469.947,2019-12-09T05:43:30Z
2019-12-09T03:46:03Z,42.805,6.029,13.2957,4.59956,2469.97,2019-12-09T05:46:33Z
2019-12-09T03:49:07Z,42.805,6.029,13.2958,4.59958,2469.97,2019-12-09T05:49:36Z
2019-12-09T03:52:10Z,42.805,6.029,13.2961,4.59958,2469.947,2019-12-09T05:52:39Z
2019-12-09T03:55:13Z,42.805,6.029,13.2958,4.59956,2469.984,2019-12-09T05:55:43Z
2019-12-09T03:58:16Z,42.805,6.029,13.2959,4.59958,2469.97,2019-12-09T05:58:46Z
2019-12-09T04:01:19Z,42.805,6.029,13.2957,4.59956,2469.97,2019-12-09T06:01:49Z
2019-12-09T04:04:23Z,42.805,6.029,13.2959,4.59956,2469.984,2019-12-09T06:04:52Z
2019-12-09T04:07:26Z,42.805,6.029,13.2957,4.59958,2469.993,2019-12-09T06:07:55Z
2019-12-09T04:10:29Z,42.805,6.029,13.2958,4.59958,2470.03,2019-12-09T06:10:58Z
2019-12-09T04:13:32Z,42.805,6.029,13.2956,4.59957,2469.993,2019-12-09T06:14:02Z
2019-12-09T04:16:35Z,42.805,6.029,13.2961,4.59958,2469.984,2019-12-09T06:17:05Z
2019-12-09T04:19:38Z,42.805,6.029,13.2959,4.59957,2469.97,2019-12-09T06:20:08Z
2019-12-09T04:22:42Z,42.805,6.029,13.2958,4.59956,2469.97,2019-12-09T06:23:11Z
2019-12-09T04:25:45Z,42.805,6.029,13.2958,4.59956,2469.993,2019-12-09T06:26:14Z
2019-12-09T04:28:48Z,42.805,6.029,13.2959,4.59958,2469.993,2019-12-09T06:29:17Z
2019-12-09T04:31:51Z,42.805,6.029,13.2958,4.59957,2469.97,2019-12-09T06:32:21Z
2019-12-09T04:34:54Z,42.805,6.029,13.2955,4.59956,2469.97,2019-12-09T06:35:24Z
2019-12-09T04:37:57Z,42.805,6.029,13.2961,4.59956,2470.007,2019-12-09T06:38:27Z
2019-12-09T04:41:01Z,42.805,6.029,13.2964,4.59956,2469.984,2019-12-09T06:41:30Z
2019-12-09T04:44:04Z,42.805,6.029,13.2959,4.59958,2469.97,2019-12-09T06:44:33Z
2019-12-09T04:47:07Z,42.805,6.029,13.2957,4.59956,2469.993,2019-12-09T06:47:37Z
2019-12-09T04:50:10Z,42.805,6.029,13.2958,4.59957,2469.97,2019-12-09T06:50:40Z
2019-12-09T04:53:13Z,42.805,6.029,13.2956,4.59956,2469.993,2019-12-09T06:53:43Z
2019-12-09T04:56:17Z,42.805,6.029,13.2962,4.59956,2469.993,2019-12-09T06:56:46Z
2019-12-09T04:59:20Z,42.805,6.029,13.2961,4.59957,2469.993,2019-12-09T06:59:50Z
2019-12-09T05:02:24Z,42.805,6.029,13.2961,4.59958,2469.984,2019-12-09T07:02:53Z
2019-12-09T05:05:27Z,42.805,6.029,13.2954,4.59957,2469.984,2019-12-09T07:05:56Z
2019-12-09T05:08:30Z,42.805,6.029,13.2959,4.59956,2470.007,2019-12-09T07:09:00Z
2019-12-09T05:11:33Z,42.805,6.029,13.2959,4.59956,2470.007,2019-12-09T07:12:03Z
2019-12-09T05:14:36Z,42.805,6.029,13.2957,4.59958,2469.984,2019-12-09T07:15:06Z
2019-12-09T05:17:40Z,42.805,6.029,13.2958,4.59957,2469.993,2019-12-09T07:18:09Z
2019-12-09T05:20:43Z,42.805,6.029,13.2961,4.59958,2469.993,2019-12-09T07:21:12Z
2019-12-09T05:23:46Z,42.805,6.029,13.2957,4.59958,2470.017,2019-12-09T07:24:16Z
2019-12-09T05:26:49Z,42.805,6.029,13.2957,4.59957,2469.97,2019-12-09T07:27:19Z
2019-12-09T05:29:52Z,42.805,6.029,13.2958,4.59958,2469.97,2019-12-09T07:30:22Z
2019-12-09T05:32:56Z,42.805,6.029,13.2955,4.59957,2469.97,2019-12-09T07:33:25Z
2019-12-09T05:35:59Z,42.805,6.029,13.2962,4.59958,2469.97,2019-12-09T07:36:28Z
2019-12-09T05:39:02Z,42.805,6.029,13.2959,4.59957,2470.007,2019-12-09T07:39:32Z
2019-12-09T05:42:05Z,42.805,6.029,13.2961,4.59957,2469.97,2019-12-09T07:42:35Z
2019-12-09T05:45:08Z,42.805,6.029,13.2959,4.59956,2469.993,2019-12-09T07:45:38Z
2019-12-09T05:48:12Z,42.805,6.029,13.2960,4.59956,2470.017,2019-12-09T07:48:41Z
2019-12-09T05:51:15Z,42.805,6.029,13.2958,4.59956,2470.03,2019-12-09T07:51:45Z
2019-12-09T05:54:18Z,42.805,6.029,13.2961,4.59957,2469.984,2019-12-09T07:54:48Z
2019-12-09T05:57:22Z,42.805,6.029,13.2956,4.59957,2470.017,2019-12-09T07:57:51Z
2019-12-09T06:00:25Z,42.805,6.029,13.2958,4.59958,2470.017,2019-12-09T08:00:54Z
2019-12-09T06:03:28Z,42.805,6.029,13.2957,4.59957,2470.017,2019-12-09T08:03:58Z
2019-12-09T06:06:31Z,42.805,6.029,13.2957,4.59956,2469.993,2019-12-09T08:07:01Z
2019-12-09T06:09:35Z,42.805,6.029,13.2959,4.59957,2469.993,2019-12-09T08:10:04Z
2019-12-09T06:12:38Z,42.805,6.029,13.2957,4.59958,2469.993,2019-12-09T08:13:07Z
2019-12-09T06:15:41Z,42.805,6.029,13.2956,4.59956,2470.017,2019-12-09T08:16:11Z
2019-12-09T06:18:44Z,42.805,6.029,13.2961,4.59957,2469.97,2019-12-09T08:19:14Z
2019-12-09T06:21:47Z,42.805,6.029,13.2961,4.59958,2469.984,2019-12-09T08:22:17Z
2019-12-09T06:24:51Z,42.805,6.029,13.2959,4.59958,2469.984,2019-12-09T08:25:20Z
2019-12-09T06:27:54Z,42.805,6.029,13.2959,4.59957,2469.984,2019-12-09T08:28:23Z
2019-12-09T06:30:57Z,42.805,6.029,13.2958,4.59956,2469.97,2019-12-09T08:31:27Z
2019-12-09T06:34:00Z,42.805,6.029,13.2959,4.59957,2469.993,2019-12-09T08:34:30Z
2019-12-09T06:37:03Z,42.805,6.029,13.2961,4.59958,2469.984,2019-12-09T08:37:33Z
2019-12-09T06:40:07Z,42.805,6.029,13.2958,4.59956,2469.984,2019-12-09T08:40:36Z
2019-12-09T06:43:10Z,42.805,6.029,13.2960,4.59957,2469.97,2019-12-09T08:43:39Z
2019-12-09T06:46:13Z,42.805,6.029,13.2960,4.59957,2469.947,2019-12-09T08:46:43Z
2019-12-09T06:49:16Z,42.805,6.029,13.2961,4.59957,2469.993,2019-12-09T08:49:46Z
2019-12-09T06:52:19Z,42.805,6.029,13.2959,4.59958,2470.017,2019-12-09T08:52:49Z
2019-12-09T06:55:23Z,42.805,6.029,13.2960,4.59958,2469.947,2019-12-09T08:55:52Z
2019-12-09T06:58:26Z,42.805,6.029,13.2961,4.59957,2469.97,2019-12-09T08:58:55Z
2019-12-09T07:01:29Z,42.805,6.029,13.2958,4.59958,2469.993,2019-12-09T09:01:59Z
2019-12-09T07:04:32Z,42.805,6.029,13.2958,4.59956,2469.97,2019-12-09T09:05:02Z
2019-12-09T07:07:35Z,42.805,6.029,13.2957,4.59956,2469.97,2019-12-09T09:08:05Z
2019-12-09T07:10:38Z,42.805,6.029,13.2957,4.59956,2470.03,2019-12-09T09:11:08Z
2019-12-09T07:13:42Z,42.805,6.029,13.2958,4.59957,2469.993,2019-12-09T09:14:11Z
2019-12-09T07:16:45Z,42.805,6.029,13.2956,4.59956,2469.97,2019-12-09T09:17:14Z
2019-12-09T07:19:48Z,42.805,6.029,13.2958,4.59958,2469.97,2019-12-09T09:20:18Z
2019-12-09T07:22:51Z,42.805,6.029,13.2961,4.59958,2469.97,2019-12-09T09:23:21Z
2019-12-09T07:25:54Z,42.805,6.029,13.2962,4.59957,2469.984,2019-12-09T09:26:24Z
2019-12-09T07:28:58Z,42.805,6.029,13.2957,4.59956,2469.993,2019-12-09T09:29:27Z
2019-12-09T07:32:01Z,42.805,6.029,13.2956,4.59957,2469.993,2019-12-09T09:32:30Z
2019-12-09T07:35:04Z,42.805,6.029,13.2959,4.59956,2469.984,2019-12-09T09:35:33Z
2019-12-09T07:38:07Z,42.805,6.029,13.2958,4.59956,2469.97,2019-12-09T09:38:37Z
2019-12-09T07:41:10Z,42.805,6.029,13.2958,4.59956,2469.97,2019-12-09T09:41:40Z
2019-12-09T07:44:13Z,42.805,6.029,13.2954,4.59956,2469.96,2019-12-09T09:44:43Z
2019-12-09T07:47:17Z,42.805,6.029,13.2958,4.59957,2469.96,2019-12-09T09:47:46Z
2019-12-09T07:50:20Z,42.805,6.029,13.2957,4.59958,2469.993,2019-12-09T09:50:49Z
2019-12-09T07:53:23Z,42.805,6.029,13.2960,4.59957,2469.97,2019-12-09T09:53:53Z
2019-12-09T07:56:26Z,42.805,6.029,13.2958,4.59957,2469.923,2019-12-09T09:56:56Z
2019-12-09T07:59:29Z,42.805,6.029,13.2961,4.59957,2469.984,2019-12-09T09:59:59Z
2019-12-09T08:02:32Z,42.805,6.029,13.2959,4.59956,2469.984,2019-12-09T10:03:02Z
2019-12-09T08:05:36Z,42.805,6.029,13.2956,4.59957,2469.984,2019-12-09T10:06:05Z
2019-12-09T08:08:39Z,42.805,6.029,13.2956,4.59956,2469.947,2019-12-09T10:09:08Z
2019-12-09T08:11:42Z,42.805,6.029,13.2954,4.59956,2469.96,2019-12-09T10:12:12Z
2019-12-09T08:14:45Z,42.805,6.029,13.2959,4.59956,2469.947,2019-12-09T10:15:15Z
2019-12-09T08:17:48Z,42.805,6.029,13.2958,4.59957,2469.993,2019-12-09T10:18:18Z
2019-12-09T08:20:52Z,42.805,6.029,13.2957,4.59956,2469.97,2019-12-09T10:21:21Z
2019-12-09T08:23:55Z,42.805,6.029,13.2963,4.59957,2469.97,2019-12-09T10:24:24Z
2019-12-09T08:26:58Z,42.805,6.029,13.2958,4.59958,2469.947,2019-12-09T10:27:28Z
2019-12-09T08:30:01Z,42.805,6.029,13.2961,4.59958,2469.947,2019-12-09T10:30:31Z
2019-12-09T08:33:05Z,42.805,6.029,13.2959,4.59958,2469.96,2019-12-09T10:33:34Z
2019-12-09T08:36:08Z,42.805,6.029,13.2958,4.59956,2469.923,2019-12-09T10:36:37Z
2019-12-09T08:39:11Z,42.805,6.029,13.2961,4.59957,2469.923,2019-12-09T10:39:41Z
2019-12-09T08:42:14Z,42.805,6.029,13.2957,4.59956,2469.923,2019-12-09T10:42:44Z
2019-12-09T08:45:17Z,42.805,6.029,13.2968,4.59956,2469.96,2019-12-09T10:45:47Z
2019-12-09T08:48:20Z,42.805,6.029,13.2958,4.59956,2469.923,2019-12-09T10:48:50Z
2019-12-09T08:51:24Z,42.805,6.029,13.2960,4.59960,2469.923,2019-12-09T10:51:53Z
2019-12-09T08:54:27Z,42.805,6.029,13.2957,4.59958,2469.97,2019-12-09T10:54:56Z
2019-12-09T08:57:30Z,42.805,6.029,13.2959,4.59956,2469.9,2019-12-09T10:58:00Z
2019-12-09T09:00:33Z,42.805,6.029,13.2962,4.59956,2469.937,2019-12-09T11:01:03Z
2019-12-09T09:03:36Z,42.805,6.029,13.2956,4.59957,2469.937,2019-12-09T11:04:06Z
2019-12-09T09:06:40Z,42.805,6.029,13.2958,4.59956,2469.937,2019-12-09T11:07:09Z
2019-12-09T09:09:43Z,42.805,6.029,13.2957,4.59956,2469.923,2019-12-09T11:10:12Z
2019-12-09T09:12:46Z,42.805,6.029,13.2957,4.59956,2469.923,2019-12-09T11:13:16Z
2019-12-09T09:15:49Z,42.805,6.029,13.2955,4.59960,2469.937,2019-12-09T11:16:19Z
2019-12-09T09:18:52Z,42.805,6.029,13.2959,4.59957,2469.914,2019-12-09T11:19:22Z
2019-12-09T09:21:56Z,42.805,6.029,13.2961,4.59960,2469.937,2019-12-09T11:22:25Z
2019-12-09T09:24:59Z,42.805,6.029,13.2961,4.59957,2469.914,2019-12-09T11:25:28Z
2019-12-09T09:28:02Z,42.805,6.029,13.2960,4.59956,2469.923,2019-12-09T11:28:32Z
2019-12-09T09:31:05Z,42.805,6.029,13.2961,4.59956,2469.914,2019-12-09T11:31:35Z
2019-12-09T09:34:08Z,42.805,6.029,13.2961,4.59956,2469.923,2019-12-09T11:34:38Z
2019-12-09T09:37:12Z,42.805,6.029,13.2957,4.59958,2469.914,2019-12-09T11:37:41Z
2019-12-09T09:40:15Z,42.805,6.029,13.2958,4.59960,2469.9,2019-12-09T11:40:44Z
2019-12-09T09:43:18Z,42.805,6.029,13.2959,4.59956,2469.914,2019-12-09T11:43:48Z
2019-12-09T09:46:21Z,42.805,6.029,13.2958,4.59956,2469.9,2019-12-09T11:46:51Z
2019-12-09T09:49:24Z,42.805,6.029,13.2960,4.59957,2469.9,2019-12-09T11:49:54Z
2019-12-09T09:52:28Z,42.805,6.029,13.2958,4.59956,2469.9,2019-12-09T11:52:57Z
2019-12-09T09:55:31Z,42.805,6.029,13.2960,4.59955,2469.9,2019-12-09T11:56:00Z
2019-12-09T09:58:34Z,42.805,6.029,13.2961,4.59956,2469.923,2019-12-09T11:59:04Z
2019-12-09T10:01:37Z,42.805,6.029,13.2959,4.59956,2469.876,2019-12-09T12:02:07Z
2019-12-09T10:04:40Z,42.805,6.029,13.2961,4.59957,2469.914,2019-12-09T12:05:10Z
2019-12-09T10:07:43Z,42.805,6.029,13.2958,4.59956,2469.876,2019-12-09T12:08:13Z
2019-12-09T10:10:47Z,42.805,6.029,13.2959,4.59956,2469.89,2019-12-09T12:11:16Z
2019-12-09T10:13:50Z,42.805,6.029,13.2961,4.59956,2469.89,2019-12-09T12:14:19Z
2019-12-09T10:16:53Z,42.805,6.029,13.2958,4.59957,2469.9,2019-12-09T12:17:23Z
2019-12-09T10:19:56Z,42.805,6.029,13.2958,4.59957,2469.867,2019-12-09T12:20:26Z
2019-12-09T10:22:59Z,42.805,6.029,13.2958,4.59956,2469.89,2019-12-09T12:23:29Z
2019-12-09T10:26:03Z,42.805,6.029,13.2960,4.59956,2469.876,2019-12-09T12:26:32Z
2019-12-09T10:29:06Z,42.805,6.029,13.2960,4.59958,2469.914,2019-12-09T12:29:36Z
2019-12-09T10:32:09Z,42.805,6.029,13.2958,4.59956,2469.876,2019-12-09T12:32:39Z
2019-12-09T10:35:12Z,42.805,6.029,13.2961,4.59956,2469.89,2019-12-09T12:35:42Z
2019-12-09T10:38:16Z,42.805,6.029,13.2962,4.59956,2469.9,2019-12-09T12:38:45Z
2019-12-09T10:41:19Z,42.805,6.029,13.2958,4.59958,2469.853,2019-12-09T12:41:49Z
2019-12-09T10:44:22Z,42.805,6.029,13.2959,4.59956,2469.876,2019-12-09T12:44:52Z
2019-12-09T10:47:25Z,42.805,6.029,13.2960,4.59956,2469.914,2019-12-09T12:47:55Z
2019-12-09T10:50:29Z,42.805,6.029,13.2960,4.59956,2469.9,2019-12-09T12:50:58Z
2019-12-09T10:53:32Z,42.805,6.029,13.2960,4.59958,2469.89,2019-12-09T12:54:01Z
2019-12-09T10:56:35Z,42.805,6.029,13.2957,4.59960,2469.89,2019-12-09T12:57:05Z
2019-12-09T10:59:38Z,42.805,6.029,13.2960,4.59956,2469.89,2019-12-09T13:00:08Z
2019-12-09T11:02:42Z,42.805,6.029,13.2960,4.59956,2469.867,2019-12-09T13:03:11Z
2019-12-09T11:05:45Z,42.805,6.029,13.2960,4.59957,2469.881,2019-12-09T13:06:14Z
2019-12-09T11:08:48Z,42.805,6.029,13.2957,4.59955,2469.853,2019-12-09T13:09:18Z
2019-12-09T11:11:51Z,42.805,6.029,13.2961,4.59956,2469.867,2019-12-09T13:12:21Z
2019-12-09T11:14:54Z,42.805,6.029,13.2959,4.59956,2469.876,2019-12-09T13:15:24Z
2019-12-09T11:17:57Z,42.805,6.029,13.2962,4.59956,2469.853,2019-12-09T13:18:27Z
2019-12-09T11:21:01Z,42.805,6.029,13.2957,4.59958,2469.876,2019-12-09T13:21:31Z
2019-12-09T11:24:04Z,42.805,6.029,13.2957,4.59955,2469.853,2019-12-09T13:24:34Z
2019-12-09T11:27:07Z,42.805,6.029,13.2957,4.59956,2469.853,2019-12-09T13:27:37Z
2019-12-09T11:30:11Z,42.805,6.029,13.2957,4.59956,2469.83,2019-12-09T13:30:40Z
2019-12-09T11:33:14Z,42.805,6.029,13.2958,4.59957,2469.853,2019-12-09T13:33:43Z
2019-12-09T11:36:17Z,42.805,6.029,13.2957,4.59956,2469.853,2019-12-09T13:36:47Z
2019-12-09T11:39:20Z,42.805,6.029,13.2956,4.59955,2469.853,2019-12-09T13:39:50Z
2019-12-09T11:42:23Z,42.805,6.029,13.2957,4.59956,2469.853,2019-12-09T13:42:53Z
2019-12-09T11:45:27Z,42.805,6.029,13.2959,4.59958,2469.853,2019-12-09T13:45:56Z
2019-12-09T11:48:30Z,42.805,6.029,13.2961,4.59955,2469.83,2019-12-09T13:48:59Z
2019-12-09T11:51:33Z,42.805,6.029,13.2958,4.59956,2469.853,2019-12-09T13:52:03Z
2019-12-09T11:54:36Z,42.805,6.029,13.2960,4.59956,2469.844,2019-12-09T13:55:06Z
2019-12-09T11:57:39Z,42.805,6.029,13.2957,4.59959,2469.867,2019-12-09T13:58:09Z
2019-12-09T12:00:43Z,42.805,6.029,13.2961,4.59956,2469.876,2019-12-09T14:01:12Z
2019-12-09T12:03:46Z,42.805,6.029,13.2958,4.59955,2469.876,2019-12-09T14:04:15Z
2019-12-09T12:06:49Z,42.805,6.029,13.2958,4.59956,2469.853,2019-12-09T14:07:19Z
2019-12-09T12:09:52Z,42.805,6.029,13.2961,4.59955,2469.876,2019-12-09T14:10:22Z
2019-12-09T12:12:55Z,42.805,6.029,13.2958,4.59956,2469.83,2019-12-09T14:13:25Z
2019-12-09T12:15:59Z,42.805,6.029,13.2961,4.59956,2469.853,2019-12-09T14:16:28Z
2019-12-09T12:19:02Z,42.805,6.029,13.2957,4.59956,2469.853,2019-12-09T14:19:31Z
2019-12-09T12:22:05Z,42.805,6.029,13.2958,4.59957,2469.853,2019-12-09T14:22:35Z
2019-12-09T12:25:08Z,42.805,6.029,13.2958,4.59956,2469.89,2019-12-09T14:25:38Z
2019-12-09T12:28:11Z,42.805,6.029,13.2957,4.59956,2469.83,2019-12-09T14:28:41Z
2019-12-09T12:31:15Z,42.805,6.029,13.2958,4.59958,2469.876,2019-12-09T14:31:44Z
2019-12-09T12:34:18Z,42.805,6.029,13.2957,4.59955,2469.867,2019-12-09T14:34:47Z
2019-12-09T12:37:21Z,42.805,6.029,13.2959,4.59956,2469.83,2019-12-09T14:37:51Z
2019-12-09T12:40:24Z,42.805,6.029,13.2959,4.59959,2469.867,2019-12-09T14:40:54Z
2019-12-09T12:43:27Z,42.805,6.029,13.2957,4.59963,2469.876,2019-12-09T14:43:57Z
2019-12-09T12:46:31Z,42.805,6.029,13.2958,4.59956,2469.853,2019-12-09T14:47:00Z
2019-12-09T12:49:34Z,42.805,6.029,13.2960,4.59957,2469.876,2019-12-09T14:50:03Z
2019-12-09T12:52:37Z,42.805,6.029,13.2959,4.59956,2469.83,2019-12-09T14:53:07Z
2019-12-09T12:55:40Z,42.805,6.029,13.2955,4.59957,2469.853,2019-12-09T14:56:10Z
2019-12-09T12:58:43Z,42.805,6.029,13.2958,4.59960,2469.853,2019-12-09T14:59:13Z
2019-12-09T13:01:47Z,42.805,6.029,13.2958,4.59958,2469.876,2019-12-09T15:02:16Z
2019-12-09T13:04:50Z,42.805,6.029,13.2957,4.59958,2469.853,2019-12-09T15:05:19Z
2019-12-09T13:07:53Z,42.805,6.029,13.2954,4.59958,2469.867,2019-12-09T15:08:23Z
2019-12-09T13:10:56Z,42.805,6.029,13.2958,4.59957,2469.876,2019-12-09T15:11:26Z
2019-12-09T13:13:59Z,42.805,6.029,13.2956,4.59957,2469.89,2019-12-09T15:14:29Z
2019-12-09T13:17:03Z,42.805,6.029,13.2957,4.59957,2469.867,2019-12-09T15:17:32Z
2019-12-09T13:20:06Z,42.805,6.029,13.2957,4.59958,2469.853,2019-12-09T15:20:36Z
2019-12-09T13:23:09Z,42.805,6.029,13.2961,4.59957,2469.89,2019-12-09T15:23:39Z
2019-12-09T13:26:13Z,42.805,6.029,13.2959,4.59958,2469.876,2019-12-09T15:26:42Z
2019-12-09T13:29:16Z,42.805,6.029,13.2954,4.59960,2469.83,2019-12-09T15:29:46Z
2019-12-09T13:32:19Z,42.805,6.029,13.2959,4.59961,2469.853,2019-12-09T15:32:49Z
2019-12-09T13:35:23Z,42.805,6.029,13.2961,4.59956,2469.853,2019-12-09T15:35:52Z
2019-12-09T13:38:26Z,42.805,6.029,13.2957,4.59960,2469.853,2019-12-09T15:38:56Z
2019-12-09T13:41:29Z,42.805,6.029,13.2958,4.59956,2469.876,2019-12-09T15:41:59Z
2019-12-09T13:44:32Z,42.805,6.029,13.2960,4.59958,2469.89,2019-12-09T15:45:02Z
2019-12-09T13:47:36Z,42.805,6.029,13.2958,4.59959,2469.853,2019-12-09T15:48:05Z
2019-12-09T13:50:39Z,42.805,6.029,13.2958,4.59964,2469.853,2019-12-09T15:51:08Z
2019-12-09T13:53:42Z,42.805,6.029,13.2957,4.59959,2469.914,2019-12-09T15:54:12Z
2019-12-09T13:56:45Z,42.805,6.029,13.2959,4.59958,2469.876,2019-12-09T15:57:15Z
2019-12-09T13:59:48Z,42.805,6.029,13.2958,4.59958,2469.853,2019-12-09T16:00:18Z
2019-12-09T14:02:52Z,42.805,6.029,13.2961,4.59957,2469.89,2019-12-09T16:03:21Z
2019-12-09T14:05:55Z,42.805,6.029,13.2958,4.59958,2469.876,2019-12-09T16:06:24Z
2019-12-09T14:08:58Z,42.805,6.029,13.2961,4.59958,2469.853,2019-12-09T16:09:28Z
2019-12-09T14:12:01Z,42.805,6.029,13.2960,4.59958,2469.876,2019-12-09T16:12:31Z
2019-12-09T14:15:04Z,42.805,6.029,13.2962,4.59958,2469.853,2019-12-09T16:15:34Z
2019-12-09T14:18:08Z,42.805,6.029,13.2959,4.59958,2469.876,2019-12-09T16:18:37Z
2019-12-09T14:21:11Z,42.805,6.029,13.2958,4.59960,2469.914,2019-12-09T16:21:41Z
2019-12-09T14:24:14Z,42.805,6.029,13.2958,4.59960,2469.876,2019-12-09T16:24:44Z
2019-12-09T14:27:18Z,42.805,6.029,13.2958,4.59956,2469.876,2019-12-09T16:27:47Z
2019-12-09T14:30:21Z,42.805,6.029,13.2957,4.59958,2469.89,2019-12-09T16:30:50Z
2019-12-09T14:33:24Z,42.805,6.029,13.2958,4.59959,2469.876,2019-12-09T16:33:54Z
2019-12-09T14:36:27Z,42.805,6.029,13.2960,4.59958,2469.9,2019-12-09T16:36:57Z
2019-12-09T14:39:30Z,42.805,6.029,13.2957,4.59956,2469.923,2019-12-09T16:40:00Z
2019-12-09T14:42:34Z,42.805,6.029,13.2953,4.59957,2469.9,2019-12-09T16:43:03Z
2019-12-09T14:45:37Z,42.805,6.029,13.2960,4.59958,2469.923,2019-12-09T16:46:06Z
2019-12-09T14:48:40Z,42.805,6.029,13.2958,4.59958,2469.914,2019-12-09T16:49:10Z
2019-12-09T14:51:43Z,42.805,6.029,13.2959,4.59958,2469.923,2019-12-09T16:52:13Z
2019-12-09T14:54:46Z,42.805,6.029,13.2960,4.59958,2469.9,2019-12-09T16:55:16Z
2019-12-09T14:57:49Z,42.805,6.029,13.2959,4.59957,2469.923,2019-12-09T16:58:19Z
2019-12-09T15:00:53Z,42.805,6.029,13.2956,4.59958,2469.89,2019-12-09T17:01:22Z